Weather reports worldwide

Advertisment
Gioia Del Colle, Italy (16312): temperature & dewpoint: 14.08.2019 06:00:00 - 20.08.2019 06:00:00 (CEST)Gioia Del Colle, Italy (16312): wind speed: 14.08.2019 06:00:00 - 20.08.2019 06:00:00 (CEST)Gioia Del Colle, Italy (16312): wind direction: 14.08.2019 06:00:00 - 20.08.2019 06:00:00 (CEST)Gioia Del Colle, Italy (16312): reduced air pressure: 14.08.2019 06:00:00 - 20.08.2019 06:00:00 (CEST)Gioia Del Colle, Italy (16312): visibility: 14.08.2019 06:00:00 - 20.08.2019 06:00:00 (CEST)
Date & Time tt [°C] td [°C] ff [km/h] ff [kn] dd ppp [hPa] vv [km]
20.08.2019 06:00:00 - - - - - - -
20.08.2019 05:00:00 18,0 13,1 4 2 N 1016,6 10
20.08.2019 04:00:00 18,0 14,0 2 1 - - 10
20.08.2019 03:00:00 19,0 14,0 2 1 N - 10
20.08.2019 02:00:00 19,6 17,2 4 2 N 1016,4 10
20.08.2019 01:00:00 20,0 13,0 4 2 - - 10
20.08.2019 00:00:00 21,0 13,0 4 2 SW - 10
19.08.2019 23:00:00 22,0 13,1 8 4 SSW 1016,0 10
19.08.2019 22:00:00 23,0 13,0 4 2 S - 10
19.08.2019 21:00:00 25,0 12,0 8 4 S - 10
19.08.2019 20:00:00 27,2 10,4 8 4 S 1015,0 10
19.08.2019 19:00:00 29,0 11,0 15 8 S - 10
19.08.2019 18:00:00 30,0 10,0 18 10 SSE - 10
19.08.2019 17:00:00 31,4 10,7 18 10 S 1014,0 10
19.08.2019 16:00:00 32,0 12,0 15 8 SSE - 10
19.08.2019 15:00:00 33,0 12,0 5 3 - - 10
19.08.2019 14:00:00 33,0 9,8 9 5 WSW 1013,7 10
19.08.2019 13:00:00 32,0 11,0 4 2 - - 10
19.08.2019 12:00:00 31,0 12,0 8 4 E - 10
19.08.2019 11:00:00 29,8 14,4 8 4 ESE 1015,1 10
19.08.2019 10:00:00 27,0 17,0 5 3 S - 10
19.08.2019 09:00:00 25,0 20,0 8 4 SSW - 10
19.08.2019 08:00:00 20,6 18,9 2 1 S 1016,3 10
19.08.2019 07:00:00 18,0 17,0 2 1 S - 10
19.08.2019 06:00:00 17,0 16,0 2 1 W - 10
19.08.2019 05:00:00 17,0 16,7 2 1 S 1015,9 10
19.08.2019 04:00:00 19,0 16,0 4 2 S - 10
19.08.2019 03:00:00 20,0 16,0 4 2 SSE - 10
19.08.2019 02:00:00 20,0 16,4 2 1 S 1016,2 10
19.08.2019 01:00:00 21,0 15,0 2 1 S - 10
19.08.2019 00:00:00 21,0 14,0 4 2 SSW - 10
18.08.2019 23:00:00 21,0 14,2 11 6 S 1016,7 10
18.08.2019 22:00:00 22,0 13,0 2 1 - - 10
18.08.2019 21:00:00 25,0 13,0 4 2 E - 10
18.08.2019 20:00:00 26,4 11,4 9 5 NE 1014,2 10
18.08.2019 19:00:00 28,0 12,0 15 8 NE - 10
18.08.2019 18:00:00 30,0 13,0 15 8 NE - 10
18.08.2019 17:00:00 30,2 13,9 21 11 NE 1013,2 10
18.08.2019 16:00:00 31,0 15,0 16 9 ENE - 10
18.08.2019 15:00:00 30,0 14,0 13 7 - - 10
18.08.2019 14:00:00 30,4 11,9 13 7 NW 1014,2 10
18.08.2019 13:00:00 30,0 12,0 11 6 N - 10
18.08.2019 12:00:00 29,0 13,0 8 4 NNW - 10
18.08.2019 11:00:00 27,6 13,9 9 5 NNW 1015,0 10
18.08.2019 10:00:00 26,0 15,0 9 5 N - 10
18.08.2019 09:00:00 24,0 18,0 11 6 N - 10
18.08.2019 08:00:00 21,2 18,8 5 3 N 1015,7 10
18.08.2019 07:00:00 16,0 16,0 5 3 NNW - 10
18.08.2019 06:00:00 16,0 15,0 4 2 N - 10
18.08.2019 05:00:00 16,4 14,8 11 6 NNW 1016,0 10
18.08.2019 04:00:00 17,0 13,0 9 5 NW - 10
18.08.2019 03:00:00 16,0 14,0 8 4 WNW - 10
18.08.2019 02:00:00 17,2 15,9 8 4 NW 1016,7 10
18.08.2019 01:00:00 17,0 16,0 8 4 NW - 10
18.08.2019 00:00:00 18,0 16,0 5 3 NW - 10
17.08.2019 23:00:00 20,0 17,2 5 3 N 1015,9 10
17.08.2019 22:00:00 21,0 17,0 4 2 N - 10
17.08.2019 21:00:00 22,0 17,0 11 6 N - 10
17.08.2019 20:00:00 24,0 15,8 16 9 N 1014,7 10
17.08.2019 19:00:00 25,0 11,0 18 10 N - 10
17.08.2019 18:00:00 27,0 12,0 21 11 N - 10
17.08.2019 17:00:00 27,6 12,8 22 12 N 1013,0 10
17.08.2019 16:00:00 28,0 13,0 24 13 N - 10
17.08.2019 15:00:00 28,0 14,0 24 13 N - 10
17.08.2019 14:00:00 28,2 12,6 21 11 N 1014,6 10
17.08.2019 13:00:00 28,0 12,0 18 10 N - 10
17.08.2019 12:00:00 28,0 13,0 16 9 N - 10
17.08.2019 11:00:00 27,0 14,1 18 10 N 1015,5 10
17.08.2019 10:00:00 26,0 15,0 18 10 NNW - 10
17.08.2019 09:00:00 24,0 18,0 15 8 NNW - 10
17.08.2019 08:00:00 22,2 19,5 16 9 NW 1014,5 10
17.08.2019 07:00:00 20,0 19,0 11 6 NW - 10
17.08.2019 06:00:00 19,0 17,0 13 7 NW - 10
17.08.2019 05:00:00 20,0 17,4 11 6 NW 1014,5 10
17.08.2019 04:00:00 21,0 17,0 16 9 NW - 10
17.08.2019 03:00:00 21,0 17,0 13 7 NW - 10
17.08.2019 02:00:00 22,0 17,6 13 7 NW 1014,5 10
17.08.2019 01:00:00 22,0 17,0 11 6 NNW - 10
17.08.2019 00:00:00 21,0 17,0 13 7 NNW - 10
16.08.2019 23:00:00 21,0 16,4 11 6 NW 1014,5 10
16.08.2019 22:00:00 22,0 16,0 11 6 NNW - 10
16.08.2019 21:00:00 23,0 16,0 9 5 NNW - 10
16.08.2019 20:00:00 23,2 16,3 9 5 N 1013,8 10
16.08.2019 19:00:00 24,0 15,0 21 11 N - 10
16.08.2019 18:00:00 25,0 15,0 22 12 N - 10
16.08.2019 17:00:00 26,4 13,9 26 14 N 1012,3 10
16.08.2019 16:00:00 28,0 13,0 28 15 N - 10
16.08.2019 15:00:00 29,0 13,0 26 14 N - 10
16.08.2019 14:00:00 28,2 13,0 18 10 NNW 1012,7 10
16.08.2019 13:00:00 28,0 14,0 16 9 NNW - 10
16.08.2019 12:00:00 28,0 14,0 15 8 NNW - 10
16.08.2019 11:00:00 26,4 13,2 16 9 NNW 1013,1 10
16.08.2019 10:00:00 25,0 15,0 13 7 N - 10
16.08.2019 09:00:00 24,0 16,0 13 7 NNW - 10
16.08.2019 08:00:00 22,0 13,6 9 5 NNW 1013,2 10
16.08.2019 07:00:00 17,0 12,0 4 2 NNW - 10
16.08.2019 06:00:00 16,0 12,0 4 2 NNW - 10
16.08.2019 05:00:00 17,0 11,5 4 2 N 1013,3 10
16.08.2019 04:00:00 17,0 12,0 4 2 W - 10
16.08.2019 03:00:00 17,0 13,0 2 1 - - 10
16.08.2019 02:00:00 18,0 14,5 11 6 NW 1013,5 10
16.08.2019 01:00:00 19,0 15,0 9 5 WNW - 10
16.08.2019 00:00:00 19,0 16,0 8 4 NW - 10
15.08.2019 23:00:00 20,2 17,0 11 6 NW 1013,6 10
15.08.2019 22:00:00 22,0 17,0 15 8 NNW - 10
15.08.2019 21:00:00 22,0 17,0 15 8 N - 10
15.08.2019 20:00:00 23,6 15,4 18 10 N 1011,5 10
15.08.2019 19:00:00 25,0 14,0 22 12 N - 10
15.08.2019 18:00:00 25,0 15,0 24 13 N - 10
15.08.2019 17:00:00 26,2 15,9 26 14 N 1010,7 10
15.08.2019 16:00:00 27,0 16,0 29 16 N - 10
15.08.2019 15:00:00 28,0 16,0 24 13 N - 10
15.08.2019 14:00:00 27,6 15,6 24 13 NNW 1010,6 10
15.08.2019 13:00:00 28,0 17,0 26 14 NNW - 10
15.08.2019 12:00:00 27,0 17,0 24 13 NNW - 10
15.08.2019 11:00:00 25,4 17,1 24 13 NNW 1011,3 10
15.08.2019 10:00:00 25,0 19,0 22 12 NNW - 10
15.08.2019 09:00:00 23,0 20,0 26 14 NW - 10
15.08.2019 08:00:00 22,6 20,1 21 11 NNW 1011,7 10
15.08.2019 07:00:00 21,0 21,0 15 8 NW - 10
15.08.2019 06:00:00 21,0 21,0 18 10 NW - 10
15.08.2019 05:00:00 21,2 20,4 21 11 NW 1011,0 10
15.08.2019 04:00:00 22,0 21,0 24 13 NNW - 10
15.08.2019 03:00:00 22,0 21,0 16 9 NW - 10
15.08.2019 02:00:00 22,2 21,2 16 9 NW 1011,1 10
15.08.2019 01:00:00 23,0 22,0 21 11 NW - 10
15.08.2019 00:00:00 24,0 23,0 16 9 NW - 10
14.08.2019 23:00:00 23,8 22,8 16 9 NNW 1010,6 10
14.08.2019 22:00:00 24,0 21,0 16 9 NNW - 10
14.08.2019 21:00:00 25,0 21,0 18 10 N - 10
14.08.2019 20:00:00 25,2 21,5 24 13 N 1009,2 10
14.08.2019 19:00:00 28,0 20,0 21 11 N - 10
14.08.2019 18:00:00 28,0 19,0 22 12 N - 10
14.08.2019 17:00:00 29,6 18,1 21 11 N 1007,7 10
14.08.2019 16:00:00 30,0 19,0 16 9 N - 10
14.08.2019 15:00:00 31,0 15,0 15 8 NNW - 10
14.08.2019 14:00:00 28,2 15,8 9 5 N 1008,5 10
14.08.2019 13:00:00 27,0 13,0 15 8 NNW - 10
14.08.2019 12:00:00 27,0 11,0 31 17 NW - 10
14.08.2019 11:00:00 30,8 16,4 28 15 WNW 1008,1 10
14.08.2019 10:00:00 31,0 16,0 26 14 WNW - 10
14.08.2019 09:00:00 29,0 19,0 22 12 W - 10
14.08.2019 08:00:00 28,0 20,8 16 9 W 1008,0 10
14.08.2019 07:00:00 23,0 20,0 5 3 W - 10
14.08.2019 06:00:00 22,0 19,0 8 4 S - 10

tt = temperature
td = dewpoint
ff = wind speed
dd = wind direction
ppp = reduced air pressure
vv = visibility

Next stations